AAL9374 KLAS-KSFO

Flight info

Callsign AAL9374
Flight time 1h 2m
Altitude 36000
Route JOHKR5 KENNO RUSME DYAMD5
Aircraft A21N/M-SDE2E3FGHIRWXY/LB1

Departure

Time 2026-05-07 19:52
Airport Harry Reid International Airport (KLAS)

Arrival

Time 2026-05-07 20:54
Airport San Francisco International Airport (KSFO)
Time Latitude Longitude Altitude Speed Heading
2026-05-07 19:44 36.08029 -115.13749 2098 ft 0 kts 50°
2026-05-07 19:45 36.08033 -115.13736 2098 ft 3 kts 90°
2026-05-07 19:46 36.08002 -115.13715 2098 ft 7 kts 158°
2026-05-07 19:46 36.07956 -115.13669 2098 ft 10 kts 133°
2026-05-07 19:46 36.07912 -115.13614 2097 ft 0 kts 136°
2026-05-07 19:47 36.07909 -115.13611 2097 ft 2 kts 136°
2026-05-07 19:47 36.07889 -115.13586 2097 ft 6 kts 136°
2026-05-07 19:47 36.07842 -115.13529 2097 ft 13 kts 130°
2026-05-07 19:47 36.07828 -115.13406 2095 ft 16 kts 90°
2026-05-07 19:48 36.07829 -115.13257 2092 ft 18 kts 92°
2026-05-07 19:48 36.07828 -115.13090 2087 ft 21 kts 89°
2026-05-07 19:48 36.07828 -115.12905 2075 ft 23 kts 92°
2026-05-07 19:48 36.07827 -115.12703 2071 ft 25 kts 90°
2026-05-07 19:49 36.07828 -115.12483 2064 ft 26 kts 90°
2026-05-07 19:49 36.07829 -115.12323 2061 ft 16 kts 90°
2026-05-07 19:49 36.07775 -115.12233 2059 ft 16 kts 181°
2026-05-07 19:49 36.07668 -115.12236 2059 ft 11 kts 180°
2026-05-07 19:50 36.07643 -115.12308 2060 ft 10 kts 270°
2026-05-07 19:50 36.07643 -115.12314 2060 ft 0 kts 270°
2026-05-07 19:50 36.07643 -115.12315 2060 ft 1 kts 270°
2026-05-07 19:50 36.07642 -115.12545 2063 ft 66 kts 270°
2026-05-07 19:51 36.07642 -115.13422 2087 ft 135 kts 270°
2026-05-07 19:51 36.07641 -115.14071 2101 ft 156 kts 269°
2026-05-07 19:51 36.07634 -115.15534 2309 ft 181 kts 271°
2026-05-07 19:51 36.07645 -115.17160 2748 ft 200 kts 272°
2026-05-07 19:52 36.07647 -115.18946 3374 ft 212 kts 270°
2026-05-07 19:52 36.07639 -115.20178 3710 ft 220 kts 270°
2026-05-07 19:52 36.07625 -115.21455 3823 ft 206 kts 264°
2026-05-07 19:52 36.07253 -115.23357 4275 ft 244 kts 255°
2026-05-07 19:53 36.06764 -115.25076 4812 ft 251 kts 239°
2026-05-07 19:53 36.05529 -115.26638 5469 ft 265 kts 210°
2026-05-07 19:53 36.03789 -115.27542 6179 ft 277 kts 199°
2026-05-07 19:53 36.01945 -115.28310 6996 ft 283 kts 200°
2026-05-07 19:54 36.00063 -115.29111 7874 ft 288 kts 201°
2026-05-07 19:54 35.98241 -115.30081 8805 ft 291 kts 208°
2026-05-07 19:54 35.96404 -115.31258 9746 ft 297 kts 210°
2026-05-07 19:54 35.94566 -115.32461 10417 ft 310 kts 210°
2026-05-07 19:55 35.92631 -115.33846 10837 ft 333 kts 216°
2026-05-07 19:55 35.90827 -115.35807 11000 ft 361 kts 230°
2026-05-07 19:55 35.89404 -115.38494 11036 ft 388 kts 246°
2026-05-07 19:55 35.88616 -115.41739 11019 ft 400 kts 263°
2026-05-07 19:56 35.88532 -115.45152 11008 ft 399 kts 273°
2026-05-07 19:56 35.88645 -115.48577 10993 ft 399 kts 274°
2026-05-07 19:56 35.88749 -115.51983 10970 ft 398 kts 273°
2026-05-07 19:56 35.88805 -115.54286 10968 ft 397 kts 273°
2026-05-07 19:57 35.88880 -115.57694 11049 ft 398 kts 272°
2026-05-07 19:57 35.88950 -115.61126 11634 ft 402 kts 272°
2026-05-07 19:57 35.89019 -115.64598 12270 ft 408 kts 272°
2026-05-07 19:57 35.89088 -115.68128 12854 ft 415 kts 272°
2026-05-07 19:58 35.89154 -115.71709 13455 ft 421 kts 272°
2026-05-07 19:58 35.89218 -115.75340 14046 ft 425 kts 272°
2026-05-07 19:58 35.89282 -115.78997 14581 ft 428 kts 272°
2026-05-07 19:58 35.89347 -115.82628 15172 ft 432 kts 272°
2026-05-07 19:59 35.89411 -115.86354 15787 ft 435 kts 272°
2026-05-07 19:59 35.89699 -115.90122 16308 ft 437 kts 282°
2026-05-07 19:59 35.90584 -115.93650 16807 ft 437 kts 295°
2026-05-07 19:59 35.92104 -115.96877 17302 ft 436 kts 308°
2026-05-07 20:00 35.94160 -115.99692 17834 ft 436 kts 317°
2026-05-07 20:00 35.96310 -116.02285 18338 ft 439 kts 317°
2026-05-07 20:00 35.98500 -116.04931 18808 ft 441 kts 317°
2026-05-07 20:00 36.00689 -116.07604 19296 ft 444 kts 317°
2026-05-07 20:01 36.02887 -116.10314 19830 ft 447 kts 317°
2026-05-07 20:01 36.05089 -116.13041 20339 ft 449 kts 317°
2026-05-07 20:01 36.07299 -116.15787 20835 ft 452 kts 317°
2026-05-07 20:01 36.09529 -116.18549 21371 ft 456 kts 317°
2026-05-07 20:02 36.11774 -116.21335 21963 ft 459 kts 316°
2026-05-07 20:02 36.14030 -116.24154 22528 ft 462 kts 316°
2026-05-07 20:02 36.16300 -116.26981 23008 ft 465 kts 316°
2026-05-07 20:02 36.18595 -116.29838 23499 ft 468 kts 316°
2026-05-07 20:03 36.20900 -116.32708 23910 ft 471 kts 317°
2026-05-07 20:03 36.23227 -116.35594 24295 ft 474 kts 317°
2026-05-07 20:03 36.25557 -116.38495 24738 ft 474 kts 317°
2026-05-07 20:03 36.27876 -116.41379 25260 ft 472 kts 317°
2026-05-07 20:04 36.30238 -116.44204 25782 ft 470 kts 318°
2026-05-07 20:04 36.32604 -116.47014 26306 ft 469 kts 318°
2026-05-07 20:04 36.34920 -116.49778 26818 ft 468 kts 318°
2026-05-07 20:04 36.37262 -116.52571 27333 ft 466 kts 318°
2026-05-07 20:05 36.39597 -116.55354 27833 ft 465 kts 318°
2026-05-07 20:05 36.41927 -116.58131 28331 ft 464 kts 318°
2026-05-07 20:05 36.44257 -116.60899 28838 ft 463 kts 319°
2026-05-07 20:05 36.46622 -116.63600 29346 ft 461 kts 320°
2026-05-07 20:06 36.48988 -116.66288 29844 ft 461 kts 320°
2026-05-07 20:06 36.51356 -116.68977 30318 ft 459 kts 320°
2026-05-07 20:06 36.53711 -116.71655 30735 ft 458 kts 320°
2026-05-07 20:06 36.56063 -116.74331 31162 ft 457 kts 320°
2026-05-07 20:07 36.58403 -116.77000 31586 ft 456 kts 320°
2026-05-07 20:07 36.60741 -116.79665 32005 ft 455 kts 320°
2026-05-07 20:07 36.63076 -116.82329 32400 ft 454 kts 320°
2026-05-07 20:07 36.65401 -116.84985 32779 ft 453 kts 319°
2026-05-07 20:08 36.67723 -116.87643 33140 ft 453 kts 319°
2026-05-07 20:08 36.70042 -116.90295 33432 ft 453 kts 319°
2026-05-07 20:08 36.72373 -116.92936 33781 ft 452 kts 321°
2026-05-07 20:08 36.74899 -116.95237 34092 ft 449 kts 330°
2026-05-07 20:09 36.77619 -116.97126 34385 ft 447 kts 334°
2026-05-07 20:09 36.80389 -116.98887 34681 ft 446 kts 335°
2026-05-07 20:09 36.83157 -117.00641 34951 ft 446 kts 334°
2026-05-07 20:10 36.88669 -117.04184 35500 ft 445 kts 334°
2026-05-07 20:10 36.91410 -117.05958 35774 ft 444 kts 334°
2026-05-07 20:10 36.94160 -117.07745 35967 ft 445 kts 334°
2026-05-07 20:11 36.99650 -117.11316 36005 ft 444 kts 334°
2026-05-07 20:11 37.05129 -117.14887 35998 ft 444 kts 334°
2026-05-07 20:12 37.10610 -117.18466 35987 ft 446 kts 334°
2026-05-07 20:12 37.16117 -117.22064 35998 ft 446 kts 334°
2026-05-07 20:13 37.21586 -117.25644 36008 ft 445 kts 333°
2026-05-07 20:13 37.27077 -117.29244 36009 ft 445 kts 334°
2026-05-07 20:14 37.32230 -117.33567 36013 ft 448 kts 321°
2026-05-07 20:14 37.36970 -117.38655 36005 ft 448 kts 321°
2026-05-07 20:15 37.41710 -117.43749 36008 ft 448 kts 321°
2026-05-07 20:15 37.46346 -117.49000 35995 ft 450 kts 313°
2026-05-07 20:15 37.48195 -117.52182 35998 ft 454 kts 301°
2026-05-07 20:16 37.49468 -117.55774 36003 ft 457 kts 289°
2026-05-07 20:16 37.50127 -117.59690 36000 ft 459 kts 278°
2026-05-07 20:16 37.50449 -117.63693 36003 ft 459 kts 277°
2026-05-07 20:17 37.51039 -117.71705 35992 ft 458 kts 277°
2026-05-07 20:17 37.51685 -117.79684 35994 ft 458 kts 277°
2026-05-07 20:18 37.52326 -117.87673 35996 ft 458 kts 277°
2026-05-07 20:18 37.52970 -117.95652 36000 ft 458 kts 277°
2026-05-07 20:19 37.53601 -118.03642 36002 ft 458 kts 277°
2026-05-07 20:19 37.54226 -118.11633 35995 ft 458 kts 277°
2026-05-07 20:20 37.54857 -118.19619 36058 ft 458 kts 277°
2026-05-07 20:20 37.55476 -118.27616 36070 ft 458 kts 277°
2026-05-07 20:21 37.56088 -118.35598 36072 ft 457 kts 277°
2026-05-07 20:21 37.56693 -118.43581 36072 ft 457 kts 277°
2026-05-07 20:22 37.57291 -118.51515 36060 ft 458 kts 277°
2026-05-07 20:22 37.57886 -118.59502 36188 ft 458 kts 276°
2026-05-07 20:23 37.58471 -118.67494 36268 ft 457 kts 276°
2026-05-07 20:23 37.59050 -118.75456 36322 ft 456 kts 276°
2026-05-07 20:24 37.59629 -118.83421 36323 ft 456 kts 277°
2026-05-07 20:24 37.60208 -118.91391 36320 ft 456 kts 276°
2026-05-07 20:25 37.60778 -118.99368 36289 ft 456 kts 276°
2026-05-07 20:25 37.61336 -119.07330 36112 ft 455 kts 276°
2026-05-07 20:26 37.61884 -119.15239 36122 ft 456 kts 276°
2026-05-07 20:26 37.62430 -119.23195 36113 ft 456 kts 276°
2026-05-07 20:27 37.62976 -119.31154 36125 ft 456 kts 276°
2026-05-07 20:27 37.63517 -119.39127 36130 ft 456 kts 276°
2026-05-07 20:28 37.64049 -119.47083 36132 ft 456 kts 276°
2026-05-07 20:28 37.64581 -119.55063 36128 ft 456 kts 275°
2026-05-07 20:28 37.64840 -119.59008 35917 ft 450 kts 275°
2026-05-07 20:29 37.65097 -119.62967 35622 ft 455 kts 275°
2026-05-07 20:29 37.65358 -119.66954 35381 ft 456 kts 276°
2026-05-07 20:29 37.65617 -119.70900 35140 ft 456 kts 276°
2026-05-07 20:29 37.65876 -119.74890 34889 ft 457 kts 276°
2026-05-07 20:30 37.66133 -119.78890 34652 ft 457 kts 276°
2026-05-07 20:30 37.66388 -119.82893 34404 ft 458 kts 275°
2026-05-07 20:30 37.66640 -119.86903 34171 ft 459 kts 275°
2026-05-07 20:30 37.66890 -119.90922 33918 ft 460 kts 275°
2026-05-07 20:31 37.67139 -119.94943 33657 ft 460 kts 276°
2026-05-07 20:31 37.67390 -119.98969 33397 ft 461 kts 275°
2026-05-07 20:31 37.67646 -120.03020 33135 ft 462 kts 275°
2026-05-07 20:31 37.67899 -120.07061 32868 ft 463 kts 275°
2026-05-07 20:32 37.68149 -120.11122 32609 ft 463 kts 276°
2026-05-07 20:32 37.68397 -120.15176 32283 ft 463 kts 275°
2026-05-07 20:32 37.68642 -120.19214 31693 ft 459 kts 276°
2026-05-07 20:32 37.68884 -120.23214 31044 ft 457 kts 275°
2026-05-07 20:33 37.69124 -120.27207 30395 ft 455 kts 275°
2026-05-07 20:33 37.69362 -120.31185 29671 ft 454 kts 275°
2026-05-07 20:33 37.69596 -120.35149 28919 ft 452 kts 275°
2026-05-07 20:33 37.69806 -120.39112 28214 ft 451 kts 273°
2026-05-07 20:34 37.69630 -120.43055 27523 ft 450 kts 263°
2026-05-07 20:34 37.69187 -120.46954 26811 ft 449 kts 262°
2026-05-07 20:34 37.68719 -120.50844 26114 ft 447 kts 262°
2026-05-07 20:34 37.68259 -120.54671 25429 ft 446 kts 262°
2026-05-07 20:35 37.67801 -120.58532 24771 ft 444 kts 262°
2026-05-07 20:35 37.67348 -120.62382 24189 ft 439 kts 262°
2026-05-07 20:35 37.66906 -120.66146 23826 ft 427 kts 262°
2026-05-07 20:35 37.66475 -120.69809 23460 ft 417 kts 262°
2026-05-07 20:36 37.66052 -120.73371 23117 ft 405 kts 262°
2026-05-07 20:36 37.65651 -120.76762 22498 ft 402 kts 262°
2026-05-07 20:36 37.65237 -120.80235 21903 ft 398 kts 262°
2026-05-07 20:36 37.64822 -120.83673 21317 ft 394 kts 262°
2026-05-07 20:37 37.64412 -120.87075 20739 ft 391 kts 263°
2026-05-07 20:37 37.64001 -120.90464 20191 ft 387 kts 262°
2026-05-07 20:37 37.63600 -120.93753 19727 ft 382 kts 262°
2026-05-07 20:37 37.63195 -120.97082 19221 ft 378 kts 262°
2026-05-07 20:38 37.62771 -121.00330 18742 ft 373 kts 261°
2026-05-07 20:38 37.62338 -121.03538 18272 ft 368 kts 262°
2026-05-07 20:38 37.61907 -121.06725 17778 ft 368 kts 262°
2026-05-07 20:38 37.61485 -121.09862 17354 ft 367 kts 262°
2026-05-07 20:39 37.61064 -121.13007 16925 ft 361 kts 261°
2026-05-07 20:39 37.60646 -121.16121 16528 ft 360 kts 261°
2026-05-07 20:39 37.60229 -121.19217 16100 ft 355 kts 261°
2026-05-07 20:39 37.59818 -121.22265 15673 ft 349 kts 261°
2026-05-07 20:40 37.59413 -121.25269 15247 ft 348 kts 261°
2026-05-07 20:40 37.59043 -121.28258 14942 ft 340 kts 262°
2026-05-07 20:40 37.58709 -121.31163 14754 ft 328 kts 262°
2026-05-07 20:40 37.58389 -121.33955 14599 ft 316 kts 262°
2026-05-07 20:41 37.58081 -121.36645 14465 ft 304 kts 262°
2026-05-07 20:41 37.57783 -121.39229 14338 ft 293 kts 262°
2026-05-07 20:41 37.57493 -121.41736 14094 ft 287 kts 262°
2026-05-07 20:41 37.57207 -121.44218 13758 ft 283 kts 261°
2026-05-07 20:42 37.56926 -121.46637 13347 ft 283 kts 261°
2026-05-07 20:42 37.56645 -121.49061 13058 ft 277 kts 261°
2026-05-07 20:42 37.56367 -121.51465 12620 ft 278 kts 261°
2026-05-07 20:42 37.56088 -121.53859 12300 ft 274 kts 261°
2026-05-07 20:43 37.55811 -121.56232 11913 ft 274 kts 261°
2026-05-07 20:43 37.55537 -121.58586 11596 ft 270 kts 261°
2026-05-07 20:43 37.55352 -121.60168 11325 ft 270 kts 261°
2026-05-07 20:43 37.54910 -121.63230 10894 ft 267 kts 254°
2026-05-07 20:44 37.54571 -121.64717 10680 ft 267 kts 253°
2026-05-07 20:44 37.54032 -121.66947 10366 ft 265 kts 253°
2026-05-07 20:44 37.53495 -121.69164 10030 ft 264 kts 252°
2026-05-07 20:44 37.52964 -121.71367 9689 ft 262 kts 252°
2026-05-07 20:45 37.52439 -121.73553 9329 ft 260 kts 252°
2026-05-07 20:45 37.51918 -121.75727 8950 ft 258 kts 253°
2026-05-07 20:45 37.51398 -121.77893 8551 ft 258 kts 253°
2026-05-07 20:45 37.50879 -121.80055 8247 ft 257 kts 253°
2026-05-07 20:46 37.50366 -121.82194 7941 ft 253 kts 253°
2026-05-07 20:46 37.49859 -121.84302 7619 ft 251 kts 253°
2026-05-07 20:46 37.49357 -121.86397 7299 ft 249 kts 254°
2026-05-07 20:46 37.49096 -121.88541 7008 ft 247 kts 270°
2026-05-07 20:47 37.49199 -121.90661 6866 ft 238 kts 274°
2026-05-07 20:47 37.49334 -121.92701 6717 ft 229 kts 274°
2026-05-07 20:47 37.49461 -121.94674 6482 ft 225 kts 274°
2026-05-07 20:47 37.49581 -121.96629 6169 ft 223 kts 274°
2026-05-07 20:48 37.49698 -121.98586 5753 ft 227 kts 274°
2026-05-07 20:48 37.49816 -122.00614 5279 ft 239 kts 274°
2026-05-07 20:48 37.49939 -122.02722 5023 ft 243 kts 274°
2026-05-07 20:48 37.50062 -122.04835 4725 ft 241 kts 274°
2026-05-07 20:49 37.50182 -122.06929 4401 ft 240 kts 273°
2026-05-07 20:49 37.50318 -122.09017 4076 ft 239 kts 278°
2026-05-07 20:49 37.50834 -122.10975 3829 ft 235 kts 296°
2026-05-07 20:49 37.51602 -122.12758 3678 ft 227 kts 298°
2026-05-07 20:50 37.52347 -122.14457 3530 ft 219 kts 298°
2026-05-07 20:50 37.53077 -122.16130 3337 ft 216 kts 299°
2026-05-07 20:50 37.53819 -122.17779 3134 ft 218 kts 297°
2026-05-07 20:50 37.54532 -122.19459 2890 ft 215 kts 297°
2026-05-07 20:51 37.55225 -122.21105 2615 ft 210 kts 297°
2026-05-07 20:51 37.55894 -122.22699 2343 ft 199 kts 297°
2026-05-07 20:51 37.56529 -122.24211 2155 ft 194 kts 296°
2026-05-07 20:51 37.57148 -122.25686 1894 ft 186 kts 296°
2026-05-07 20:52 37.57728 -122.27072 1620 ft 173 kts 296°
2026-05-07 20:52 37.58276 -122.28379 1375 ft 162 kts 296°
2026-05-07 20:52 37.58696 -122.29381 1193 ft 151 kts 296°
2026-05-07 20:52 37.59104 -122.30353 1003 ft 132 kts 296°
2026-05-07 20:53 37.59458 -122.31203 828 ft 130 kts 298°
2026-05-07 20:53 37.59873 -122.32177 729 ft 125 kts 299°
2026-05-07 20:53 37.60265 -122.33146 548 ft 123 kts 299°
2026-05-07 20:53 37.60660 -122.34080 410 ft 125 kts 300°
2026-05-07 20:54 37.61073 -122.35048 228 ft 124 kts 301°
2026-05-07 20:54 37.61476 -122.36000 46 ft 122 kts 300°
2026-05-07 20:54 37.61850 -122.36894 27 ft 103 kts 297°
2026-05-07 20:54 37.62092 -122.37476 27 ft 49 kts 298°
2026-05-07 20:55 37.62212 -122.37785 27 ft 32 kts 286°
2026-05-07 20:55 37.62230 -122.38022 27 ft 16 kts 265°
2026-05-07 20:55 37.62220 -122.38154 27 ft 11 kts 251°
2026-05-07 20:55 37.62154 -122.38216 27 ft 14 kts 210°
2026-05-07 20:56 37.62065 -122.38277 27 ft 15 kts 207°
2026-05-07 20:56 37.62024 -122.38302 27 ft 1 kts 190°
2026-05-07 20:56 37.62003 -122.38291 27 ft 5 kts 147°
2026-05-07 20:56 37.61980 -122.38248 27 ft 4 kts 114°
2026-05-07 20:57 37.61965 -122.38210 27 ft 7 kts 117°
2026-05-07 20:57 37.61936 -122.38145 27 ft 10 kts 120°
2026-05-07 20:57 37.61917 -122.38091 27 ft 7 kts 110°
2026-05-07 20:57 37.61899 -122.38030 27 ft 0 kts 109°
2026-05-07 20:59 37.61889 -122.38019 27 ft 4 kts 141°
2026-05-07 20:59 37.61859 -122.37998 27 ft 5 kts 161°
2026-05-07 21:00 37.61809 -122.37979 27 ft 10 kts 164°
2026-05-07 21:00 37.61748 -122.37951 27 ft 6 kts 158°
2026-05-07 21:00 37.61705 -122.37966 27 ft 6 kts 266°
2026-05-07 21:00 37.61707 -122.37983 27 ft 4 kts 275°
2026-05-07 21:01 37.61710 -122.38030 27 ft 4 kts 275°
2026-05-07 21:01 37.61711 -122.38043 27 ft 0 kts 276°